www.pogodaiklimat.ru

Погода и климат >> Архив погоды >> Норвегия >> Банак


ПОГОДА в Банаке

  • Прогноз погоды в Банаке
  • Монитор погоды в Банаке

АРХИВ ПОГОДЫ в Банаке

Время (UTC), дата Ветер
(напр.,м/с)
 
Видим.   Явления Облачность Т
(С)
Тd
(С)
f
(%)
Тe
(С)
Тes
(С)
Комфортность P
(гПа)
Po
(гПа)
Тmin
(С)
Tmax
(С)
R
(мм)
R24
(мм)
S
(см)
04 11.07 штиль 0
{2}
н/о н/о +10.6 +6.6 76 +10 +10 1014.3 1013.4
05 11.07 СЗ 2
{3}
н/о н/о +11.7 +6.8 72 +11 +11 1014.0 1013.1
06 11.07 С 2
{3}
н/о н/о +12.0 +6.9 71 +11 +11 1013.9 1013.0 +8.2 +13.2
07 11.07 СЗ 3
{4}
н/о н/о +12.4 +6.9 69 +11 +11 1014.0 1013.1
08 11.07 СЗ 3
{4}
н/о н/о +13.7 +7.0 64 +13 +13 1013.9 1013.0
09 11.07 СЗ 3
{4}
н/о н/о +13.6 +6.2 61 +13 +13 1013.7 1012.8
10 11.07 СЗ 4
{5}
н/о н/о +16.0 +5.6 50 +15 +15 1013.6 1012.7
11 11.07 СЗ 6
{6}
н/о н/о +15.2 +5.7 53 +14 +14 1013.3 1012.4
12 11.07 СЗ 6
{7}
н/о н/о +16.0 +5.3 49 +15 +15 1013.2 1012.3
13 11.07 СЗ 6
{7}
н/о н/о +16.6 +4.6 45 +16 +16 1013.4 1012.5
14 11.07 СЗ 6
{7}
н/о н/о +16.9 +5.5 47 +16 +16 1013.4 1012.5
15 11.07 С 6
{8}
н/о н/о +16.8 +4.5 44 +16 +16 1013.3 1012.4
16 11.07 СЗ 6
{8}
н/о н/о +15.6 +5.2 50 +14 +14 1013.4 1012.5
17 11.07 СЗ 7
{9}
н/о н/о +14.6 +5.2 53 +13 +13 1013.3 1012.3
18 11.07 С 7
{10}
н/о н/о +14.6 +4.9 52 +13 +13 1013.2 1012.3 +11.8 +17.1
19 11.07 С 8
{10}
н/о н/о +14.0 +5.6 57 +12 +12 1013.3 1012.4
20 11.07 С 4
{10}
н/о н/о +12.8 +5.5 61 +11 +11 1013.8 1012.8
21 11.07 С 4
{6}
н/о н/о +11.7 +5.8 67 +10 +10 1014.0 1013.1
22 11.07 С 2
{4}
н/о н/о +10.7 +5.9 72 +10 +10 1014.3 1013.3
23 11.07 Ю 2
{3}
н/о н/о +7.5 +4.8 83 +5 +5 1014.3 1013.4
00 12.07 Ю 3
{10}
н/о н/о +8.2 +4.2 76 +6 +6 1014.4 1013.5
01 12.07 Ю 5
{7}
н/о н/о +9.4 +3.4 66 +6 +6 1014.4 1013.5
02 12.07 Ю 3
{6}
н/о н/о +9.3 +3.5 67 +7 +7 1014.5 1013.6
03 12.07 Ю 3
{4}
н/о н/о +10.6 +3.6 62 +9 +9 1014.5 1013.6
04 12.07 Ю 4
{4}
н/о н/о +12.0 +3.5 56 +10 +10 1014.5 1013.6
05 12.07 Ю 4
{5}
н/о н/о +13.1 +2.7 49 +12 +12 1014.4 1013.4
06 12.07 ЮВ 2
{7}
н/о н/о +14.4 +3.3 47 +14 +14 1014.3 1013.4 +7.0 +14.7
07 12.07 СВ 3
{4}
н/о н/о +15.3 +4.1 47 +15 +15 1014.3 1013.4
08 12.07 СЗ 4
{5}
н/о н/о +15.7 +4.1 46 +15 +15 1014.2 1013.3
09 12.07 СЗ 5
{6}
н/о н/о +15.9 +4.3 46 +15 +15 1014.1 1013.2
10 12.07 СЗ 5
{6}
н/о н/о +15.9 +4.9 48 +15 +15 1014.2 1013.3
11 12.07 С 5
{7}
н/о н/о +16.2 +4.9 47 +15 +15 1014.2 1013.3
12 12.07 С 7
{8}
н/о н/о +17.1 +5.4 46 +16 +16 1014.0 1013.1
13 12.07
{9}
н/о н/о +16.5 +3.2 41 1014.1 1013.2
14 12.07 СЗ 6
{9}
н/о н/о +15.4 +4.5 48 +14 +14 1014.2 1013.3
15 12.07 СЗ 7
{9}
н/о н/о +13.9 +5.0 55 +12 +12 1014.4 1013.5
16 12.07 СЗ 7
{10}
н/о н/о +14.0 +5.4 56 +12 +12 1014.3 1013.4
17 12.07 СЗ 9
{10}
н/о н/о +13.2 +4.6 56 +10 +10 1014.5 1013.6
18 12.07 СЗ 8
{11}
н/о н/о +12.5 +5.2 61 +10 +10 1014.7 1013.7 +12.5 +17.1
19 12.07 СЗ 8
{10}
н/о н/о +12.3 +5.5 63 +9 +9 1014.9 1014.0
20 12.07 С 9
{11}
н/о н/о +11.3 +5.6 68 +8 +8 1015.1 1014.1
21 12.07 С 8
{11}
н/о н/о +10.5 +5.7 72 +7 +7 1015.5 1014.5
22 12.07 С 8
{10}
н/о н/о +9.9 +5.3 73 +6 +6 1015.7 1014.8
23 12.07 С 7
{10}
н/о н/о +9.2 +5.4 77 +5 +5 1016.0 1015.1
00 13.07 С 5
{11}
н/о н/о +8.9 +5.3 78 +6 +6 1016.1 1015.1
01 13.07 С 6
{8}
н/о н/о +8.5 +5.8 83 +5 +5 1016.1 1015.2
02 13.07 С 4
{7}
н/о н/о +8.7 +5.1 78 +6 +6 1016.2 1015.3
03 13.07 С 5
{6}
н/о н/о +8.7 +6.2 84 +5 +5 1016.4 1015.5
04 13.07 С 6
{7}
н/о н/о +9.5 +5.9 78 +6 +6 1016.3 1015.4
05 13.07 С 7
{8}
н/о н/о +10.8 +4.7 66 +8 +8 1016.3 1015.4
06 13.07 С 7
{8}
н/о н/о +10.4 +3.7 63 +7 +7 1016.4 1015.5 +8.4 +12.7
07 13.07 С 7
{8}
н/о н/о +9.7 +5.1 73 +6 +6 1016.6 1015.7
08 13.07 С 6
{8}
н/о н/о +11.5 +4.7 63 +9 +9 1016.7 1015.8
09 13.07 С 6
{7}
н/о н/о +12.0 +4.7 61 +9 +9 1016.6 1015.7
10 13.07 С 5
{7}
н/о н/о +12.5 +4.0 56 +10 +10 1016.5 1015.5
11 13.07
{8}
н/о н/о +13.0 +5.7 61 1016.4 1015.4
12 13.07 С 6
{8}
н/о н/о +13.0 +3.9 54 +11 +11 1016.1 1015.2
13 13.07 С 7
{9}
н/о н/о +13.3 +4.7 56 +11 +11 1015.9 1015.0
14 13.07
{10}
н/о н/о +12.1 +5.3 63 1016.0 1015.1
15 13.07 С 8
{11}
н/о н/о +11.2 +5.1 66 +8 +8 1016.3 1015.4
16 13.07 С 8
{10}
н/о н/о +11.0 +5.8 70 +8 +8 1016.4 1015.5
17 13.07 С 8
{11}
н/о н/о +9.3 +5.7 78 +5 +5 1016.5 1015.6
18 13.07 С 9
{11}
н/о н/о +8.9 +5.5 79 +4 +4 1016.5 1015.5 +8.8 +13.5
19 13.07 С 9
{11}
н/о н/о +9.8 +5.6 75 +6 +6 1016.4 1015.5
20 13.07 С 9
{11}
н/о н/о +8.6 +5.2 79 +4 +4 1016.7 1015.7
21 13.07 С 8
{11}
н/о н/о +8.3 +5.2 81 +4 +4 1016.6 1015.7
22 13.07 С 8
{10}
н/о н/о +8.2 +4.6 78 +4 +4 1016.8 1015.8
23 13.07 С 7
{9}
н/о н/о +8.2 +4.1 75 +4 +4 1016.9 1015.9
00 14.07 С 6
{11}
н/о н/о +8.1 +3.8 74 +4 +4 1017.0 1016.1
01 14.07 С 5
{7}
н/о н/о +8.0 +3.5 73 +4 +4 1016.9 1015.9
02 14.07 С 6
{7}
н/о н/о +7.8 +3.9 76 +4 +4 1016.8 1015.8
03 14.07 С 5
{7}
н/о н/о +7.7 +3.8 76 +4 +4 1016.8 1015.8
04 14.07 С 5
{6}
н/о н/о +7.8 +3.5 74 +4 +4 1016.7 1015.8
05 14.07 СЗ 4
{6}
н/о н/о +8.2 +3.9 74 +5 +5 1016.7 1015.8
06 14.07 С 4
{7}
н/о н/о +8.8 +3.2 68 +6 +6 1016.5 1015.6 +7.5 +10.0
07 14.07 С 4
{6}
н/о н/о +9.3 +3.3 66 +7 +7 1016.4 1015.5
08 14.07 С 4
{5}
н/о н/о +10.0 +3.3 63 +8 +8 1016.4 1015.5
09 14.07 СЗ 4
{6}
н/о н/о +10.0 +3.1 62 +8 +8 1016.5 1015.6
10 14.07 СЗ 3
{5}
н/о н/о +10.1 +2.9 61 +8 +8 1016.4 1015.5
11 14.07 СЗ 6
{8}
н/о н/о +11.7 +4.2 60 +9 +9 1016.3 1015.4
12 14.07 СЗ 2
{8}
н/о н/о +10.7 +3.7 62 +10 +10 1016.1 1015.2
13 14.07 С 6
{8}
н/о н/о +10.6 +4.1 64 +8 +8 1016.0 1015.1
14 14.07 СЗ 4
{7}
н/о н/о +10.7 +4.0 63 +8 +8 1016.1 1015.1
15 14.07 С 5
{7}
н/о н/о +10.4 +4.3 66 +8 +8 1016.2 1015.3
16 14.07 СЗ 4
{7}
н/о н/о +10.1 +3.6 64 +8 +8 1016.1 1015.2
17 14.07 С 5
{6}
н/о н/о +10.1 +3.6 64 +7 +7 1015.9 1015.0
18 14.07 С 5
{8}
н/о н/о +9.6 +3.6 66 +7 +7 1015.8 1014.9 +8.7 +12.5
19 14.07 С 4
{6}
н/о н/о +9.4 +3.6 67 +7 +7 1015.6 1014.7
20 14.07 С 4
{5}
н/о н/о +8.9 +3.7 70 +6 +6 1015.6 1014.7
21 14.07 С 3
{5}
н/о н/о +8.8 +3.9 71 +6 +6 1015.5 1014.6
22 14.07 С 3
{4}
н/о н/о +8.1 +3.8 74 +6 +6 1015.6 1014.7
23 14.07 С 3
{4}
н/о н/о +7.7 +4.7 81 +5 +5 1015.5 1014.5
00 15.07
{6}
н/о н/о +7.9 +4.7 80 1015.4 1014.4
01 15.07 СВ 2
{4}
н/о н/о +8.6 +4.6 76 +7 +7 1015.3 1014.3
02 15.07 С 1
{3}
н/о н/о +8.0 +5.8 86 +7 +7 1015.2 1014.3
03 15.07 Ю 1
{2}
н/о н/о +8.2 +5.7 84 +7 +7 1015.2 1014.2
04 15.07 штиль 0
{2}
н/о н/о +8.8 +5.6 80 +8 +8 1015.1 1014.2
05 15.07 В 1
{3}
н/о н/о +10.8 +6.2 73 +11 +11 1014.9 1014.0
06 15.07 СВ 1
{4}
н/о н/о +9.7 +4.9 72 +9 +9 1014.7 1013.8 +7.4 +10.8
07 15.07
{2}
н/о н/о +11.2 +3.3 58 1014.4 1013.5
08 15.07 С 2
{3}
н/о н/о +11.3 +3.4 58 +10 +10 1014.5 1013.5
09 15.07 СЗ 3
{5}
н/о н/о +11.8 +3.1 55 +10 +10 1014.5 1013.6
10 15.07 С 2
{5}
н/о н/о +12.9 +3.6 53 +12 +12 1014.4 1013.5
11 15.07 С 5
{6}
н/о н/о +13.0 +3.4 52 +11 +11 1014.3 1013.3
12 15.07 С 4
{7}
н/о н/о +13.2 +3.6 52 +12 +12 1014.3 1013.4
13 15.07 С 5
{6}
н/о н/о +12.4 +3.6 55 +10 +10 1014.5 1013.5
14 15.07 С 5
{8}
н/о н/о +13.2 +4.1 54 +11 +11 1014.5 1013.6
15 15.07 С 5
{7}
н/о н/о +12.9 +4.4 56 +11 +11 1014.5 1013.6
16 15.07 С 7
{8}
н/о н/о +11.4 +4.6 63 +8 +8 1014.9 1013.9
17 15.07
{8}
н/о н/о +10.9 +3.9 62 1015.1 1014.2
18 15.07 С 5
{8}
н/о н/о +10.7 +5.5 70 +8 +8 1015.3 1014.3 +10.1 +14.0
19 15.07 С 6
{8}
н/о н/о +10.2 +5.0 70 +7 +7 1015.3 1014.4
20 15.07 С 6
{7}
н/о н/о +9.5 +6.2 80 +6 +6 1015.6 1014.7
21 15.07 С 6
{7}
н/о н/о +9.4 +6.0 79 +6 +6 1015.8 1014.9
22 15.07 С 6
{7}
н/о н/о +9.0 +7.3 89 +5 +5 1015.9 1015.0
23 15.07 С 5
{8}
н/о н/о +8.7 +7.2 90 +5 +5 1016.1 1015.2
00 16.07 СЗ 4
{8}
н/о н/о +8.6 +6.9 89 +5 +5 1016.3 1015.4
01 16.07 С 4
{5}
н/о н/о +8.8 +6.8 87 +6 +6 1016.4 1015.5
02 16.07 СЗ 3
{5}
н/о н/о +9.1 +6.0 81 +7 +7 1016.6 1015.7
03 16.07 СЗ 4
{5}
н/о н/о +9.3 +6.4 82 +6 +6 1016.8 1015.9
04 16.07 С 3
{5}
н/о н/о +9.3 +6.6 83 +7 +7 1017.0 1016.0
05 16.07 СЗ 3
{4}
н/о н/о +9.6 +6.7 82 +7 +7 1017.0 1016.0
06 16.07 С 2
{5}
н/о н/о +11.1 +6.9 75 +10 +10 1016.9 1016.0 +8.6 +11.3
07 16.07 С 2
{3}
н/о н/о +11.1 +7.0 76 +10 +10 1017.0 1016.1
08 16.07 С 2
{3}
н/о н/о +13.4 +7.6 68 +13 +13 1016.9 1016.0
09 16.07 С 3
{4}
н/о н/о +13.8 +7.4 65 +13 +13 1016.7 1015.8
10 16.07 СЗ 4
{5}
н/о н/о +14.8 +7.6 62 +14 +14 1016.6 1015.7
11 16.07 С 2
{6}
н/о н/о +15.5 +7.5 59 +15 +15 1016.8 1015.9
12 16.07 СВ 5
{6}
н/о н/о +14.8 +6.9 59 +13 +13 1016.7 1015.8
13 16.07 С 3
{5}
н/о н/о +15.2 +6.5 56 +15 +15 1016.6 1015.7
14 16.07
{8}
н/о н/о +14.8 +7.1 60 1016.8 1015.9
15 16.07 СЗ 6
{8}
н/о н/о +14.6 +7.4 62 +13 +13 1016.7 1015.8
16 16.07 СЗ 5
{7}
н/о н/о +14.2 +7.0 62 +13 +13 1016.6 1015.7
17 16.07 СВ 4
{7}
н/о н/о +15.7 +5.3 50 +15 +15 1016.7 1015.8
18 16.07 С 4
{8}
н/о н/о +14.5 +4.8 52 +13 +13 1016.8 1015.9 +10.8 +16.2
19 16.07 В 3
{6}
н/о н/о +13.6 +5.0 56 +13 +13 1017.0 1016.0
20 16.07 Ю 4
{5}
н/о н/о +11.4 +5.5 67 +9 +9 1017.1 1016.2
21 16.07 Ю 3
{5}
н/о н/о +10.9 +5.5 69 +9 +9 1017.2 1016.3
22 16.07 Ю 3
{4}
н/о н/о +10.3 +5.3 71 +8 +8 1017.4 1016.5
23 16.07 ЮЗ 1
{4}
н/о н/о +10.0 +5.4 73 +10 +10 1017.5 1016.6
00 17.07 С 3
{6}
н/о н/о +10.0 +5.8 75 +8 +8 1017.2 1016.3
01 17.07 С 6
{7}
н/о н/о +10.2 +5.6 73 +7 +7 1016.9 1016.0
02 17.07 С 5
{8}
н/о н/о +10.0 +6.2 77 +7 +7 1016.9 1016.0
03 17.07 С 6
{7}
н/о н/о +10.2 +6.0 75 +7 +7 1016.7 1015.7
04 17.07 С 5
{7}
н/о н/о +10.6 +6.4 75 +8 +8 1016.3 1015.4
05 17.07 СЗ 4
{6}
н/о н/о +10.0 +6.5 79 +7 +7 1016.2 1015.2
06 17.07 С 4
{8}
н/о н/о +10.0 +6.5 79 +7 +7 1015.6 1014.7 +9.9 +14.5
07 17.07 С 4
{5}
н/о н/о +9.9 +6.4 79 +7 +7 1015.3 1014.4
08 17.07 С 4
{5}
н/о н/о +9.3 +6.7 84 +6 +6 1015.1 1014.2
09 17.07
{5}
н/о н/о +9.0 +8.2 95 1014.8 1013.9
10 17.07 С 3
{5}
н/о н/о +9.4 +8.0 91 +7 +7 1014.6 1013.6
11 17.07 СЗ 2
{4}
н/о н/о +9.5 +8.0 90 +8 +8 1014.3 1013.3
12 17.07 С 3
{5}
н/о н/о +9.8 +8.1 89 +7 +7 1014.0 1013.0
13 17.07 СЗ 3
{4}
н/о н/о +9.9 +7.7 86 +8 +8 1013.7 1012.7
14 17.07 С 3
{4}
н/о н/о +10.1 +8.4 89 +8 +8 1013.7 1012.7
15 17.07 С 6
{9}
н/о н/о +10.4 +7.6 83 +7 +7 1013.6 1012.6
16 17.07 С 5
{9}
н/о н/о +10.0 +6.5 79 +7 +7 1013.7 1012.8
17 17.07 С 6
{7}
н/о н/о +8.7 +6.5 86 +5 +5 1013.7 1012.8
18 17.07 СВ 3
{9}
н/о н/о +8.8 +5.7 81 +6 +6 1013.8 1012.8 +8.7 +10.5
19 17.07 СВ 2 н/о н/о +8.7 +5.6 81 +7 +7 1013.9 1013.0
20 17.07 ЮЗ 1 н/о н/о +8.6 +6.1 84 +8 +8 1014.0 1013.1
21 17.07 Ю 2
{2}
н/о н/о +8.3 +6.8 90 +6 +6 1014.2 1013.3
22 17.07 Ю 1
{2}
н/о н/о +8.1 +7.4 95 +7 +7 1014.5 1013.5
23 17.07 ЮЗ 1 н/о н/о +7.9 +7.3 96 +7 +7 1014.6 1013.7
00 18.07 Ю 2
{4}
н/о н/о +8.1 +6.9 92 +6 +6 1014.8 1013.9
01 18.07 Ю 2
{2}
н/о н/о +8.7 +6.8 88 +7 +7 1015.0 1014.0
02 18.07 Ю 2
{3}
н/о н/о +8.5 +7.1 91 +7 +7 1015.2 1014.3
03 18.07 штиль 0
{2}
н/о н/о +8.8 +8.1 95 +8 +8 1015.5 1014.6

 

Местоположение метеостанции Банак (Норвегия): широта 70.06 долгота 24.99 высота над уровнем моря 5 м.

В архиве по умолчанию представлена погода в Банаке за последнюю неделю. Архивные данные за месяц целиком и за предыдущие месяцы, начиная с января 2011 года, Вы можете получить, выбрав интересующий диапазон дат из раскрывающегося списка и нажав кнопку "Ввод!".


*Определитесь, кто Вы:
робот инопланетянин человек

Внимание! Время в таблицах - всемирное. Для получения местного времени необходимо прибавить поправку, которая равна 1 ч.

Смотрите также архив погоды в соседних городах и на ближайших метеорологических станциях:

Погода в Карасйоке (Норвегия) (59 км)
Погода в Альта аэропорту (Норвегия) (63 км)
Погода в Суоловуопми-Лулит (Норвегия) (77 км)
Погода в Суовддатмохкки (Норвегия) (80 км)
Погода в Утсйоки Кево (Финляндия) (84 км)
Погода в Утсёки Кево Кеволярви (Финляндия) (84 км)
Погода в Искорасе (Норвегия) (86 км)
Погода в Рогнсундете (Норвегия) (90 км)
Погода в Хаммерфест аэропорту (Норвегия) (92 км)
Погода в Утсйоки Нуоргам (Финляндия) (110 км)

Пояснения к столбцам:

Ветер - указаны скорость ветра в м/с - средняя за 10 мин, порывы в срок и между сроками (в фигурных скобках) и направление, откуда дует ветер: С - северный, СВ - северо-восточный, В - восточный, ЮВ - юго-восточный, Ю - южный, ЮЗ - юго-западный, З - западный, СЗ - северо-западный.
Видимость - горизонтальная дальность видимости в метрах или километрах. При видимости от 1 до 10 км при отсутствии осадков обычно наблюдается дымка, при ухудшении видимости до 1 км и менее - туман. В сухую погоду видимость может ухудшаться дымом, пылью или мглою.
Явления - указаны атмосферные явления, наблюдавшиеся в срок или в последний час перед сроком; фигурными скобками обозначены явления, наблюдавшиеся между сроками (за 1-3 часа до срока); квадратными скобками обозначены град или гололедные отложения с указанием их диаметра в мм.
Облачность - указаны через наклонную черту общая и нижняя облачность в баллах и высота нижней границы облаков в метрах; квадратными скобками обозначены формы облаков: Ci - перистые, Cs - перисто-слоистые, Cc - перисто-кучевые, Ac - высококучевые, As - высокослоистые, Sc - слоисто-кучевые, Ns - слоисто-дождевые, Cu - кучевые, Cb - кучево-дождевые. Подробнее классификацию облаков см. в Атласе облаков (PDF).
T - Температура воздуха - температура, измеренная на высоте 2 м над землей.
Td - Температура точки росы - температура, при понижении до которой содержащийся в воздухе водяной пар достигнет насыщения.
f - Относительная влажность воздуха - влажноcть воздуха, измеренная на высоте 2 м над землей.
Te - Эффективная температура - температура, которую ощущает одетый по сезону человек в тени. Характеристика душности погоды. При расчете учитывается влияние влажности воздуха и скорости ветра на теплоощущения человека.
Tes - Эффективная температура на солнце - температура, которую ощущает человек, с поправкой на солнечный нагрев. Характеристика знойности погоды. Зависит от высоты солнца над горизонтом, облачности и скорости ветра. Ночью, в пасмурную погоду, а также при ветре 12 м/с и более поправка равна нулю.
P - Атмосферное давление - приведенное к уровню моря атмосферное давление.
Po - Атмосферное давление - измеренное на уровне метеостанции атмосферное давление.
Tmin - Минимальная температура - минимум температуры воздуха на высоте 2 м над землей.
Tmax - Максимальная температура - максимум температуры воздуха на высоте 2 м над землей.
R - Количество осадков - Количество выпавших осадков за период времени, мм. При наведении курсора мыши на число - период времени, за который выпало указанное количество осадков.
R24 - Количество осадков - Количество выпавших осадков за 24 часа, мм.
S - Снежный покров - Высота снежного покрова, см. При наведении курсора мыши на число - состояние снежного покрова и степень покрытия местности в баллах.